Wind_Speed
27 27 27 27 26 25 25 25 27 30 33 36 37 39 41 43 46 48 50 51 53 53 54 53 51 50 50 51 51 51 51 51 51 51 51 51 50 49 48 48 48 47 46 46 45 46 46 45 45 44 44 44 44 45 45 44 43 42 41 40 39 38 36 34 33 30 26 26 27 29 31 32 33 35 37 38 39 39 40 42 43 44 45 47 48
26 26 27 28 27 27 27 26 25 26 27 30 32 35 37 40 42 45 48 50 52 54 55 55 55 54 53 53 52 52 52 52 53 53 52 52 51 50 50 49 48 47 47 46 46 46 46 46 46 45 46 46 46 46 46 45 44 43 42 42 41 40 38 36 35 34 31 26 26 28 30 31 32 34 37 38 39 39 40 41 43 44 46 48 49
23 24 25 26 27 28 29 29 28 28 27 27 28 30 32 35 38 40 43 46 49 52 54 56 57 57 57 56 55 55 55 54 54 53 53 52 52 51 51 50 49 48 47 47 47 47 46 46 46 46 47 47 47 48 47 45 44 43 43 43 42 42 40 38 37 38 35 30 27 28 30 31 32 35 38 40 40 40 41 42 43 45 47 49 51
20 21 22 23 25 27 28 30 31 31 30 30 29 29 30 31 33 35 37 40 43 47 50 54 57 59 59 59 58 58 57 56 55 54 53 53 53 53 52 52 51 49 48 48 48 47 47 47 47 47 48 48 49 48 48 47 45 44 44 44 44 43 42 40 39 39 38 35 31 28 29 32 32 34 39 41 41 41 43 44 45 46 49 51 52
20 21 21 22 22 24 26 28 29 31 32 32 32 32 32 32 32 32 33 35 37 40 44 48 52 55 58 60 60 59 59 58 58 57 55 54 54 54 54 53 52 51 50 49 49 49 48 48 48 49 50 50 50 49 48 48 45 44 45 45 45 45 43 41 41 40 39 38 35 30 29 31 32 33 39 42 42 42 43 44 46 48 50 52 54
20 20 21 22 22 23 24 25 27 28 29 31 32 34 35 35 35 34 34 35 35 36 38 40 43 47 52 56 59 60 61 60 60 59 57 56 56 56 55 55 54 53 52 51 50 50 50 50 50 50 51 50 50 50 50 48 45 45 46 46 45 45 44 42 41 40 40 40 38 34 32 31 32 34 38 42 45 45 45 46 48 50 52 54 55
20 21 21 22 22 23 24 25 25 26 27 28 29 30 32 34 35 36 36 37 36 36 36 37 38 40 43 47 51 55 59 61 62 61 59 58 57 57 57 57 56 55 54 53 52 51 51 52 51 50 51 51 51 52 51 48 45 46 46 46 46 46 44 43 42 41 42 40 38 37 35 33 33 36 39 42 46 47 49 51 51 52 55 57 58
21 21 22 22 22 24 24 25 25 26 26 26 27 27 28 29 31 32 34 36 36 37 37 37 38 38 39 40 42 46 51 56 59 61 61 61 59 58 58 58 58 57 56 55 54 53 53 53 51 50 51 52 54 54 51 48 47 47 47 46 47 46 45 43 42 42 42 41 38 38 38 35 35 39 41 44 47 48 50 53 55 56 58 60 61
22 22 22 23 23 24 24 25 25 26 26 26 26 26 26 26 27 28 29 31 32 34 36 37 38 39 38 38 38 41 44 48 53 57 61 62 62 60 60 59 59 59 58 57 56 55 54 53 51 50 51 54 55 53 51 48 48 48 47 47 47 46 44 43 42 43 42 41 39 39 39 36 37 40 43 45 49 50 51 54 56 59 61 61 62
22 22 23 24 25 26 26 26 26 26 26 26 26 26 26 26 27 27 27 28 28 30 31 33 35 36 37 37 37 39 40 42 46 51 56 60 62 63 62 61 61 60 59 59 58 56 54 53 51 51 53 54 54 52 50 49 48 48 47 47 47 46 44 43 43 43 43 41 39 39 39 38 38 41 44 47 50 51 53 55 57 60 62 63 63
24 25 26 27 27 28 28 28 28 28 27 27 27 27 27 27 27 27 28 28 28 29 30 31 32 33 34 35 36 38 38 39 42 45 50 56 60 63 64 64 63 62 61 60 58 57 55 53 53 53 54 54 53 52 50 49 48 47 46 47 47 45 44 43 43 44 43 41 40 39 40 40 40 41 45 48 50 52 53 56 58 61 63 64 65
27 28 29 30 30 30 30 30 30 30 30 30 29 29 29 28 28 29 29 30 30 31 31 32 32 33 34 35 36 37 38 39 40 42 45 50 55 60 63 65 64 63 61 60 59 57 55 54 54 54 54 53 52 51 50 48 48 47 46 47 46 44 44 44 44 44 43 42 40 38 40 42 41 42 45 49 50 52 54 56 58 61 62 64 65
29 29 30 31 31 32 33 33 33 32 32 32 32 32 31 31 31 31 31 31 32 32 32 32 33 33 34 35 36 37 38 40 40 41 43 46 50 55 60 63 65 64 62 60 59 57 56 55 55 54 53 52 51 49 48 48 47 46 46 46 44 43 44 43 44 44 43 42 41 38 39 43 43 42 46 49 51 53 55 56 57 60 62 63 64
29 29 30 30 31 31 32 33 34 34 35 34 34 34 34 34 34 34 34 34 34 33 33 33 33 33 34 35 35 37 38 39 40 41 42 44 47 50 55 59 62 64 63 61 59 56 55 55 54 53 52 50 49 47 47 46 46 46 46 44 42 43 43 43 44 44 43 42 40 39 40 42 43 43 45 49 52 54 56 57 58 60 62 64 64
28 28 28 28 29 30 30 31 32 34 35 36 36 36 36 37 37 37 37 36 36 35 35 34 34 33 34 35 35 36 37 38 39 40 42 44 45 48 51 55 59 62 63 61 59 56 55 54 52 51 48 47 46 45 45 45 46 46 44 42 41 42 42 42 43 43 42 41 40 40 40 41 42 44 46 49 51 53 55 57 58 61 63 63 62
28 28 27 28 28 28 29 29 30 31 32 34 35 36 37 38 38 39 39 38 38 37 36 36 35 35 35 35 36 36 36 36 38 39 41 43 45 47 48 51 55 59 61 61 58 56 53 51 49 46 44 43 42 43 44 45 46 45 42 40 41 40 40 41 43 42 41 39 39 40 40 40 42 43 45 49 52 54 56 57 58 61 63 63 60
28 28 28 28 28 28 28 28 28 29 30 31 33 34 36 37 38 39 40 39 39 39 38 38 37 36 35 35 36 36 37 37 37 38 39 41 44 46 47 48 51 55 57 59 57 55 51 47 44 41 39 39 41 42 44 45 45 42 40 39 40 38 38 40 42 41 39 38 38 39 39 40 41 43 46 49 52 54 56 57 58 61 62 61 58
29 29 29 29 29 29 29 29 28 28 29 29 31 32 34 35 36 38 38 39 39 39 39 39 38 37 36 35 35 36 37 37 37 37 38 40 42 45 45 46 49 51 54 56 55 52 47 42 39 37 36 38 40 42 44 44 42 40 38 39 38 36 37 39 40 38 37 36 37 37 38 39 41 43 46 49 51 53 55 56 58 60 60 58 55
30 30 30 30 31 31 31 30 30 30 30 30 31 32 32 33 35 36 37 38 38 39 39 39 38 37 36 35 36 36 37 37 37 37 37 37 40 43 43 44 46 48 50 52 52 48 43 37 34 34 35 38 40 42 43 41 39 38 38 38 36 35 36 38 38 36 35 35 36 36 36 38 41 43 45 48 50 52 54 56 58 59 57 54 52
30 30 30 31 31 31 32 32 32 32 32 32 32 32 32 33 34 35 36 37 38 38 39 39 38 37 36 36 36 36 37 37 37 37 37 36 38 40 41 41 42 45 46 47 46 43 38 33 31 32 35 38 39 40 40 38 37 37 37 36 35 34 36 37 36 34 33 33 34 34 35 38 40 43 45 47 49 51 53 55 56 55 53 51 50
31 30 31 31 32 32 33 33 33 33 33 34 33 33 33 34 34 35 36 36 37 38 38 38 38 38 37 36 37 37 38 38 37 37 37 37 37 39 39 38 39 41 42 43 41 38 33 30 31 33 35 37 38 38 38 37 36 36 35 34 34 34 35 34 33 32 32 32 32 33 34 37 40 42 45 47 49 51 53 54 53 51 50 49 48
32 32 32 33 33 34 34 34 35 35 35 35 35 35 35 34 35 35 36 37 37 37 37 37 38 37 37 37 37 38 39 39 39 38 38 37 36 37 36 35 35 38 39 39 36 32 29 29 31 33 36 37 36 36 36 36 35 34 33 33 34 34 34 33 32 31 30 31 32 32 34 37 39 41 44 46 48 50 52 51 50 48 47 47 47
35 34 34 35 35 35 35 36 36 36 37 37 37 37 37 36 36 35 36 36 37 37 37 37 37 37 37 37 38 38 39 40 40 39 38 37 36 35 34 32 34 36 36 34 30 28 28 30 32 34 36 36 35 34 34 34 33 33 32 33 33 33 33 32 31 30 30 31 32 32 34 37 40 42 44 46 48 50 51 49 47 46 45 45 46
38 37 37 37 37 37 37 37 37 37 38 38 39 39 38 38 38 36 36 36 36 37 37 37 37 38 38 38 38 39 40 39 39 38 38 38 37 35 32 31 31 33 32 29 27 27 29 32 33 35 35 34 33 32 32 32 32 32 32 32 33 32 32 31 30 29 29 30 31 33 34 37 40 42 44 46 48 50 49 47 45 44 44 44 44
40 40 40 40 40 40 39 38 38 39 39 39 39 40 40 39 39 38 37 36 36 36 37 37 37 37 38 38 38 39 40 39 38 37 38 38 37 35 31 29 29 29 28 27 27 28 30 32 33 33 32 31 30 30 30 30 30 31 31 31 32 31 31 30 29 29 29 30 32 33 35 38 41 43 45 47 49 49 48 45 43 43 43 43 43
41 41 41 41 41 41 41 41 40 40 40 40 40 40 40 40 39 38 37 36 36 36 36 37 37 37 37 37 37 39 39 38 37 36 37 38 36 32 29 26 25 25 25 26 27 28 30 32 31 30 29 28 28 28 29 29 29 29 30 30 30 30 30 29 29 29 29 31 32 33 36 39 41 43 45 47 48 47 46 44 41 41 42 42 41
42 42 42 42 42 42 42 42 42 42 42 42 41 41 41 40 40 39 37 36 36 36 36 36 36 35 36 35 36 38 38 36 35 35 36 35 31 27 24 22 22 22 24 25 26 28 29 29 28 27 27 26 27 27 27 27 27 28 29 29 29 28 28 28 28 28 29 31 32 34 37 39 41 43 45 46 46 45 44 42 40 40 41 41 39
43 43 43 43 43 43 43 43 42 42 42 42 42 41 41 40 40 39 38 37 36 36 36 35 35 34 34 33 34 36 35 33 33 34 34 32 27 23 20 18 18 20 22 25 26 27 26 26 25 25 26 26 26 26 25 24 25 26 27 27 27 26 27 27 27 28 29 31 32 34 37 39 41 44 45 44 43 42 41 40 40 40 40 40 39
43 43 44 45 45 45 45 45 44 44 43 42 42 42 41 40 40 39 38 37 36 36 36 35 34 33 32 31 33 34 33 32 33 34 33 31 27 22 17 15 17 21 24 26 27 26 26 26 25 25 25 25 24 22 21 22 24 25 25 25 24 24 25 25 26 27 29 30 32 35 37 39 42 43 43 42 41 40 39 39 39 39 39 39 38
44 44 45 45 46 46 46 46 45 45 44 43 43 42 41 40 38 38 37 37 36 36 35 35 34 31 30 30 32 34 32 31 33 34 32 30 27 22 18 19 23 26 28 28 28 27 27 26 26 24 23 21 18 18 19 21 22 23 22 22 22 22 23 23 25 26 28 30 32 35 37 40 41 42 42 41 39 37 37 38 38 38 38 37 37
46 45 45 45 46 46 46 46 45 45 44 43 43 42 42 40 38 37 37 36 35 35 35 35 32 29 28 30 33 33 31 30 32 34 31 29 27 24 22 23 26 28 29 28 27 27 26 25 22 20 17 16 15 16 19 20 20 20 19 19 19 20 21 22 23 25 27 29 32 35 38 40 40 40 40 39 36 35 35 36 37 37 37 36 36
46 47 47 47 47 47 46 46 45 44 43 41 41 41 41 40 38 36 35 35 34 33 33 33 30 27 28 31 33 33 31 29 31 32 28 26 26 24 23 24 26 27 27 26 25 24 22 20 17 15 14 14 15 16 17 17 17 17 17 17 17 18 19 20 22 24 26 29 32 35 38 39 39 39 38 36 34 33 34 35 36 36 35 35 36
47 48 48 47 47 46 44 43 42 41 39 38 37 37 38 38 37 35 34 33 33 32 31 30 28 26 29 31 32 32 30 29 31 30 25 22 23 22 22 24 25 25 24 22 21 20 17 15 15 15 15 15 15 15 14 14 14 14 14 14 15 16 17 19 21 23 26 30 33 35 37 38 38 37 35 33 32 32 34 34 35 34 34 34 35
47 46 46 45 43 40 38 37 36 35 34 34 33 33 33 34 33 32 31 30 30 30 29 28 27 27 29 30 30 29 28 29 29 25 19 18 19 21 22 23 23 21 20 18 17 16 14 14 15 16 15 14 13 12 12 12 12 12 11 11 13 15 16 18 20 23 27 30 33 35 36 36 35 33 31 31 31 32 33 34 34 33 33 34 35
45 43 40 37 34 32 31 30 29 30 30 30 29 29 29 30 30 28 28 28 27 27 26 26 26 27 27 27 27 26 26 28 26 19 14 15 17 19 19 19 17 15 14 13 13 13 14 15 16 16 15 13 12 11 10 10 10 9 9 9 11 14 16 18 21 24 28 30 32 33 34 34 32 30 29 29 30 31 32 33 33 32 33 34 35
42 37 31 28 27 28 28 29 28 29 29 28 28 27 27 27 27 26 26 26 26 25 24 24 24 25 25 25 24 24 24 24 21 14 11 13 14 14 14 13 12 11 12 13 14 15 16 17 17 16 14 12 10 10 9 9 7 7 7 9 10 13 15 18 22 25 28 30 31 32 32 31 29 28 27 28 30 31 32 31 31 32 33 34 35
38 31 25 24 26 28 28 29 28 28 28 28 27 27 26 25 24 24 24 24 24 22 21 20 21 23 23 22 21 20 21 20 15 10 10 11 11 11 12 13 14 14 14 14 14 15 16 16 15 14 12 11 10 9 8 7 6 6 7 8 10 13 16 20 23 25 27 29 30 30 29 28 26 26 27 28 29 31 31 31 30 31 32 34 35
35 28 24 23 25 27 27 27 26 25 26 26 25 25 24 22 21 20 19 19 19 17 16 16 18 19 18 17 17 18 18 16 10 9 11 11 11 11 13 15 15 14 13 12 13 14 14 14 13 12 11 10 9 8 7 6 6 5 6 8 10 14 18 21 23 25 27 28 29 27 26 25 25 25 26 28 29 30 30 29 29 30 31 33 34
30 25 23 23 25 27 27 26 25 24 24 24 23 21 19 17 15 14 14 13 13 12 11 13 14 14 12 13 15 15 13 9 8 11 11 11 11 13 15 15 14 12 11 11 12 12 13 13 12 11 10 10 9 8 7 6 5 5 6 9 12 16 18 21 23 25 26 26 26 24 23 23 24 25 27 28 29 29 28 28 29 30 31 32 33
25 22 21 22 24 26 27 26 26 24 23 22 21 18 16 14 12 9 8 7 6 7 9 12 12 12 12 13 13 11 8 9 13 15 14 13 13 15 16 14 12 11 11 11 11 12 12 12 11 11 11 10 9 8 7 5 4 4 7 11 14 17 19 21 22 24 24 24 23 22 22 22 24 25 27 28 28 28 27 27 29 30 31 32 32
23 20 19 20 23 24 25 26 25 23 21 20 18 16 13 10 6 4 3 4 5 7 10 12 12 12 12 13 11 9 11 16 19 18 16 15 17 18 16 13 11 10 10 11 12 12 11 11 11 11 11 10 9 7 6 3 3 6 9 12 15 17 19 20 22 22 22 21 20 20 21 22 24 26 27 27 27 27 26 27 29 30 31 32 33
22 18 18 19 21 22 24 25 25 22 20 17 14 10 7 5 3 4 5 6 8 9 11 12 13 13 12 11 9 10 14 19 22 21 19 20 21 20 16 12 10 10 10 11 11 11 11 11 11 11 10 9 8 6 3 2 5 8 11 13 15 17 19 20 21 20 20 19 19 20 21 23 24 26 26 27 26 26 26 27 29 30 31 32 33
22 18 17 18 19 21 22 24 24 22 18 13 9 6 5 5 7 7 7 7 9 11 12 12 13 13 11 8 7 10 15 19 21 22 22 23 23 20 15 11 10 10 10 10 10 11 11 12 11 11 10 9 7 4 2 4 7 9 11 13 15 17 19 19 19 18 18 18 18 20 21 23 24 25 26 26 25 25 25 27 28 30 30 31 32
23 19 17 17 19 21 21 22 23 21 15 9 6 6 7 9 10 10 9 9 11 13 13 14 13 10 7 5 6 10 14 16 17 19 20 21 20 18 14 11 10 9 10 11 11 12 12 12 11 11 10 7 4 2 3 6 8 10 12 14 16 17 18 18 17 17 17 17 18 20 21 23 24 25 25 25 24 24 25 27 28 29 30 31 32
25 19 16 17 19 21 20 20 20 18 13 8 7 8 10 12 12 12 11 12 13 15 16 16 11 6 3 6 10 13 14 14 15 16 17 18 17 14 12 10 9 9 11 12 12 12 11 12 12 11 8 5 3 3 5 6 8 11 12 14 16 17 17 16 16 16 16 17 18 20 21 23 24 24 24 24 23 24 25 27 28 29 29 30 31
28 21 17 17 18 20 20 17 15 14 14 12 10 10 12 14 13 13 13 14 15 18 19 15 7 3 7 11 14 15 15 15 15 16 16 16 15 13 11 9 9 10 12 13 12 12 12 12 11 9 6 4 4 5 6 7 9 11 13 14 16 16 16 15 15 15 16 17 18 20 21 23 24 24 24 23 23 24 25 27 28 29 29 30 31
32 24 20 18 17 17 17 15 12 11 14 14 12 11 13 14 14 14 14 16 18 20 18 10 3 7 11 13 15 15 15 15 16 16 16 16 14 11 10 9 10 12 13 13 13 13 13 12 10 7 5 4 4 5 6 8 10 12 13 15 16 15 15 14 14 15 15 17 18 20 21 22 23 24 24 23 23 23 25 26 28 29 29 30 31
36 29 23 20 18 16 16 14 12 12 13 15 14 14 15 15 15 16 16 17 19 20 14 5 6 10 12 14 14 15 15 16 16 16 15 13 11 9 9 10 11 12 13 13 14 14 13 11 8 6 5 5 5 6 7 9 10 12 14 15 15 15 14 13 14 14 15 17 18 19 21 22 23 24 23 23 23 23 24 26 28 29 30 30 31
39 34 28 23 20 18 16 15 15 14 13 14 16 16 15 15 15 15 14 16 19 17 9 4 8 11 13 14 14 14 15 15 14 13 12 10 9 9 9 10 11 13 14 14 15 14 12 10 8 7 5 4 5 6 7 9 11 12 14 15 15 14 13 12 13 14 15 16 18 19 20 22 23 24 23 23 23 23 24 26 27 28 29 30 31
39 37 32 27 23 20 17 16 16 15 14 14 15 16 15 15 15 14 13 16 18 14 6 6 9 12 13 14 14 14 14 14 13 12 11 10 9 9 9 10 12 14 15 15 14 13 11 9 8 6 5 4 5 6 8 9 11 12 14 15 15 13 12 12 13 14 15 16 17 18 20 21 23 24 24 23 23 23 24 25 26 27 29 30 30
37 37 35 31 27 23 20 18 17 17 16 16 16 16 15 15 15 14 15 18 18 11 5 9 11 13 14 14 14 14 14 13 13 12 11 10 9 9 10 12 14 15 16 15 14 12 11 9 8 6 5 4 5 7 8 10 11 12 14 15 14 12 11 11 13 14 15 16 17 18 19 21 23 24 24 24 23 23 24 25 26 27 28 29 30
Wind_Direction
275 275 274 275 277 279 281 278 274 271 268 267 266 265 262 259 255 252 250 249 247 246 245 244 244 244 246 249 251 253 254 255 255 256 257 257 258 259 260 261 261 262 264 265 265 266 266 265 265 265 265 265 264 263 262 263 265 270 276 276 272 269 267 267 268 268 269 273 278 283 286 289 291 293 294 296 299 303 305 307 309 311 312 313 314
279 277 275 276 276 276 277 278 278 277 275 272 270 268 266 264 261 257 255 253 251 249 248 247 247 246 246 247 249 251 253 254 255 255 256 257 257 258 259 260 261 262 262 264 264 264 264 264 264 264 263 262 262 262 262 262 265 271 276 277 274 270 268 267 269 269 268 269 273 279 284 288 291 292 294 296 298 302 304 306 309 311 312 313 315
284 282 280 278 277 276 276 276 277 277 277 277 276 273 271 268 265 263 261 258 256 254 253 251 250 250 249 248 248 250 251 253 254 255 256 257 258 258 259 260 260 261 261 262 262 262 262 262 262 261 261 260 260 261 261 263 265 271 277 278 274 272 269 268 269 270 270 270 271 276 281 286 290 293 294 297 300 303 305 307 310 312 314 315 316
291 289 286 284 282 280 279 278 276 275 275 275 275 274 274 272 270 269 266 264 261 259 257 255 254 253 253 252 252 251 251 252 253 254 256 257 258 257 257 258 258 259 259 259 259 259 259 259 259 259 258 259 259 260 262 263 266 271 277 278 275 272 270 269 269 270 272 274 274 277 282 285 290 294 295 296 301 304 306 309 311 314 315 316 317
294 293 291 288 286 284 282 280 278 277 276 274 273 271 271 271 271 271 270 269 267 264 262 260 258 257 256 254 253 253 252 252 252 252 253 255 256 256 255 255 256 256 256 256 256 256 256 256 256 256 256 257 258 260 262 263 266 272 277 278 275 273 271 270 270 271 274 276 278 280 283 286 291 296 297 298 300 304 306 309 312 315 316 316 317
292 292 291 290 289 287 285 283 282 281 279 277 275 272 271 271 270 271 272 272 272 271 270 268 266 263 260 258 255 254 253 253 253 252 252 253 254 255 255 255 254 253 253 253 253 254 254 254 254 254 255 257 258 260 261 263 267 273 277 278 276 273 272 271 272 273 275 278 281 283 286 289 293 297 299 300 302 305 307 309 312 315 316 317 318
291 291 291 292 291 288 288 288 287 286 284 282 280 278 276 273 272 271 271 271 272 273 274 274 272 270 267 264 261 258 256 255 254 254 253 253 253 254 255 255 254 252 252 252 252 252 252 252 253 253 255 256 258 259 260 263 268 273 276 278 276 274 273 272 273 275 276 279 284 287 289 293 297 299 300 302 304 307 310 310 313 316 317 319 321
290 290 290 291 290 289 289 289 288 287 286 286 285 284 283 280 279 277 274 273 273 272 272 272 272 272 271 270 268 264 262 259 257 256 255 254 253 253 254 255 255 253 252 251 251 251 251 252 252 253 254 256 258 259 260 263 268 272 275 277 277 274 273 273 274 276 277 280 285 288 291 297 301 302 303 305 306 308 312 313 315 318 319 321 324
291 290 289 287 286 286 287 288 288 288 288 288 287 287 287 286 285 284 283 281 278 276 275 273 273 273 273 273 271 268 266 263 260 258 257 256 255 253 253 254 254 254 253 252 251 250 250 250 251 252 253 255 257 258 260 264 269 272 274 276 276 274 273 274 275 276 278 282 286 289 293 298 302 303 304 306 307 310 313 315 317 319 320 321 325
293 292 289 287 285 284 285 285 286 288 289 290 290 289 289 288 288 288 288 287 285 283 280 278 277 276 275 275 273 270 268 265 261 258 257 257 256 254 253 253 253 253 253 253 251 250 249 249 249 250 251 254 256 258 261 266 269 271 273 275 276 274 274 275 276 277 279 283 287 291 294 299 302 304 306 307 308 311 314 317 318 320 321 322 325
293 292 290 289 287 286 285 284 284 285 286 288 289 289 290 290 291 291 290 289 288 286 284 283 281 279 278 277 275 274 273 269 264 260 257 256 256 255 254 253 252 253 253 253 252 250 248 248 248 249 251 252 255 258 262 266 269 271 273 274 275 275 275 276 276 278 280 283 287 292 296 299 302 305 306 307 309 312 315 317 319 321 322 323 325
295 293 291 290 289 289 289 287 286 285 285 286 287 287 288 289 290 290 290 289 288 287 287 287 286 284 281 279 278 277 276 274 271 266 261 258 257 257 256 255 253 252 252 252 252 250 249 248 248 249 250 252 254 258 262 266 268 270 272 273 275 276 276 276 276 278 281 283 287 293 296 298 301 305 307 307 310 313 315 318 321 321 322 324 325
301 297 294 292 292 291 290 289 288 287 286 286 285 285 287 288 289 290 289 289 289 290 290 290 289 288 287 285 284 281 279 277 275 272 268 264 260 258 258 257 256 254 253 253 253 253 252 250 249 249 250 252 255 259 262 265 267 269 270 272 275 276 276 275 276 278 281 284 288 293 296 298 301 306 307 308 311 313 315 319 321 321 322 324 325
305 302 301 300 298 295 292 289 288 287 286 286 285 285 286 287 288 289 289 290 290 291 291 291 291 291 290 290 289 287 284 282 279 277 273 269 265 262 259 258 257 256 255 254 254 254 253 251 251 250 251 254 257 260 263 264 266 267 269 273 275 276 276 276 276 277 280 284 288 292 295 298 302 306 308 310 312 314 316 319 320 321 322 324 325
309 308 309 307 303 299 297 294 291 288 286 285 285 285 286 286 287 288 289 290 291 291 291 291 291 291 291 291 292 291 290 287 283 280 276 273 271 267 262 260 259 257 255 255 254 254 253 253 252 253 254 257 260 261 262 263 264 266 269 273 275 275 276 276 275 277 280 284 288 292 295 298 302 306 309 311 313 314 316 319 321 322 323 324 326
312 313 313 310 307 306 303 300 297 294 290 288 286 285 285 284 285 287 288 289 290 291 291 291 290 291 291 291 292 293 295 293 288 283 280 277 275 272 267 264 262 259 256 255 255 254 254 255 255 256 259 260 260 260 260 261 262 265 269 273 274 275 276 276 275 278 281 284 288 292 295 300 304 307 310 311 312 314 317 320 322 323 323 324 325
312 312 312 311 310 309 308 305 302 298 294 292 290 288 286 285 285 285 285 287 288 289 290 291 291 291 292 292 292 292 293 295 294 289 282 278 277 277 272 268 265 262 258 256 255 255 255 255 257 259 260 260 258 258 258 259 261 265 269 272 273 275 276 275 276 279 282 285 289 293 297 302 305 308 310 311 313 316 319 321 323 323 323 324 325
309 308 308 308 309 309 308 306 305 301 298 295 292 290 289 288 287 285 285 285 286 287 289 290 292 292 292 292 291 291 291 293 296 295 288 280 278 279 276 271 268 264 260 258 256 255 255 257 258 260 259 257 255 255 256 258 261 265 269 271 273 275 275 274 277 280 282 285 289 293 298 303 306 308 310 312 315 317 319 321 322 322 322 324 324
304 304 304 304 305 305 305 305 304 303 301 298 294 292 291 289 288 287 286 285 285 286 287 290 291 293 293 291 290 290 290 291 295 297 294 285 279 279 277 274 270 266 262 260 257 256 256 258 258 257 255 253 252 253 255 258 261 265 268 270 273 274 273 274 278 280 282 285 289 295 299 303 306 308 309 312 315 317 319 321 322 322 322 323 323
304 303 303 303 302 301 301 301 300 300 300 298 296 294 292 290 288 287 286 286 285 285 286 288 290 292 294 293 290 290 290 291 293 295 295 289 282 280 278 275 272 268 265 261 258 255 256 256 255 253 250 250 251 253 255 258 261 264 267 270 273 272 272 275 278 279 282 286 290 296 300 303 305 307 309 313 316 317 319 321 321 321 321 322 321
304 304 303 303 301 300 299 297 297 296 295 295 295 294 292 290 288 286 285 285 285 285 286 287 288 291 292 292 291 290 290 291 292 293 293 290 284 281 279 276 272 268 264 260 256 254 254 253 250 248 247 247 249 252 255 257 260 263 267 270 271 271 272 275 277 279 282 287 291 296 300 302 304 307 310 314 316 318 320 321 321 320 320 320 320
304 303 303 302 301 300 298 297 295 294 293 292 291 291 290 290 288 287 285 284 284 284 285 285 286 288 290 291 291 291 291 291 292 292 292 289 285 282 280 276 270 265 261 257 254 252 251 248 245 244 244 246 248 251 254 257 260 264 267 269 270 271 272 275 276 278 283 287 292 296 299 301 304 308 311 314 316 318 319 320 320 319 319 320 321
302 302 302 301 300 299 298 297 296 294 292 290 289 288 288 288 287 287 285 284 283 282 283 283 284 285 287 289 291 292 293 292 293 293 292 289 285 281 277 272 267 263 260 255 250 247 243 241 240 241 242 245 247 250 253 257 262 265 268 269 270 271 273 275 276 279 283 288 292 296 299 302 306 309 312 314 317 318 318 319 320 319 320 322 322
301 301 300 299 299 298 298 297 297 295 293 291 289 287 286 285 285 285 285 283 282 281 280 281 282 283 284 286 290 292 293 294 294 295 294 290 285 279 271 266 263 261 257 250 242 238 238 238 238 239 242 245 248 250 254 258 263 266 268 269 270 271 274 276 277 280 284 288 293 297 301 305 308 311 313 316 317 318 318 320 320 320 321 323 324
298 298 298 298 298 297 297 297 296 295 293 291 289 287 285 283 283 283 283 283 281 280 278 278 279 281 282 284 288 291 293 295 297 298 296 292 285 276 268 262 259 256 250 241 235 235 237 238 238 240 244 247 249 251 255 259 263 266 268 269 270 272 275 277 278 281 285 289 294 299 303 306 309 312 315 317 317 318 320 321 321 322 323 324 324
296 296 296 296 297 297 297 297 296 295 293 292 290 287 285 283 281 281 280 280 280 279 277 277 278 279 281 283 286 290 294 297 299 300 298 294 286 276 267 262 256 248 239 233 232 234 236 237 239 241 245 248 250 253 256 260 264 267 268 269 271 273 275 277 279 282 286 291 296 302 305 308 311 314 316 317 318 319 321 321 322 323 323 323 324
296 296 297 296 296 296 296 295 295 294 293 292 291 288 285 283 281 279 279 278 277 277 277 277 277 278 280 283 286 290 295 300 301 300 297 293 284 274 266 259 249 239 232 231 233 234 235 237 238 240 243 247 250 253 257 261 265 266 268 270 272 274 276 278 280 283 288 293 299 303 306 309 313 315 316 318 319 320 321 321 323 323 323 323 324
298 298 298 297 297 296 295 294 293 292 291 291 290 288 286 283 280 279 277 276 276 276 276 276 276 277 279 283 286 291 296 300 299 296 294 289 278 265 258 250 238 230 228 231 232 232 232 234 235 238 242 245 249 254 258 262 264 266 268 271 273 275 277 278 281 285 290 295 301 304 307 311 314 315 316 319 320 321 321 322 323 323 323 324 325
300 300 299 298 297 296 295 294 293 291 289 288 286 285 284 282 280 278 276 275 274 275 275 275 276 277 279 282 286 290 294 297 296 294 293 286 271 255 242 230 220 218 222 225 227 227 228 230 232 235 241 246 250 255 259 261 263 266 268 271 274 276 277 279 283 288 293 298 303 306 310 313 314 315 317 320 321 321 321 322 323 323 324 325 326
303 302 301 299 298 297 295 294 292 291 289 287 285 284 283 282 280 278 276 274 273 273 274 275 276 278 280 280 283 287 291 294 295 295 292 282 265 246 224 210 209 212 217 220 222 224 226 228 231 236 241 247 251 255 257 259 262 265 268 272 275 276 278 282 286 291 296 301 305 308 311 313 314 317 320 321 322 322 322 323 323 324 325 326 327
306 305 303 301 299 297 295 294 293 291 290 288 286 285 284 283 281 278 275 273 272 271 272 274 276 278 278 278 280 286 290 292 294 294 289 276 260 242 222 211 211 213 216 220 223 225 226 229 233 236 240 242 245 248 253 257 261 265 270 272 274 276 280 285 290 294 299 303 307 310 311 313 316 319 321 322 322 323 323 323 323 324 326 327 328
309 308 306 304 302 301 299 298 296 294 292 290 286 284 283 282 281 279 275 272 271 270 271 273 275 276 275 276 281 287 291 293 295 294 287 272 258 242 223 213 213 216 219 223 226 228 230 232 233 232 232 234 238 244 250 256 262 267 270 271 274 279 285 289 293 298 302 306 309 311 312 315 319 321 322 322 323 323 323 323 324 325 326 328 329
312 311 309 307 306 304 303 302 300 299 297 294 289 284 281 280 281 279 275 271 271 270 270 272 273 272 272 276 283 289 293 295 296 294 285 267 252 237 221 213 214 217 221 224 226 228 230 229 225 225 227 231 235 241 249 256 261 264 267 271 278 284 289 293 297 302 306 308 310 312 314 318 321 321 322 322 323 324 324 324 325 326 327 329 331
315 314 312 311 310 310 310 309 307 305 303 299 295 289 283 280 279 278 273 269 268 268 269 269 269 270 274 279 286 290 294 295 295 291 279 258 242 229 219 216 217 218 219 221 221 223 223 221 220 223 226 230 234 241 247 252 256 261 267 275 281 286 290 295 301 306 308 310 311 314 317 320 321 321 322 323 324 324 324 325 326 327 328 330 332
318 316 316 316 318 319 319 317 315 312 309 304 300 294 287 283 280 275 269 265 262 262 263 265 267 271 277 283 288 292 294 295 292 283 261 240 233 227 221 219 219 216 213 211 210 211 213 215 219 223 226 228 233 238 243 248 254 261 271 277 281 286 293 301 306 308 309 311 314 317 320 321 321 322 323 324 324 325 325 326 327 328 329 331 334
320 319 321 323 323 322 319 317 315 314 312 309 305 300 293 287 281 275 268 262 259 257 257 258 264 272 279 285 291 294 294 291 285 267 235 224 226 226 222 216 210 203 200 200 202 207 211 214 217 220 222 224 228 232 238 245 252 259 267 273 282 291 300 306 308 309 311 314 317 320 321 321 322 323 324 325 325 325 326 327 328 329 331 333 335
322 322 324 325 324 323 321 318 316 315 314 312 309 306 299 292 285 278 271 265 260 255 251 255 265 275 282 289 294 295 292 286 272 238 209 204 207 213 213 204 196 194 198 203 209 214 216 215 215 216 216 216 221 226 231 238 243 249 260 276 291 301 306 308 309 312 315 317 319 321 322 322 323 324 325 326 326 326 327 328 329 331 333 335 337
322 323 326 328 329 329 327 324 321 320 320 318 315 311 305 296 288 282 277 270 261 252 251 262 273 280 285 292 295 294 289 278 250 204 187 183 185 196 200 195 192 196 204 212 215 217 216 214 211 209 208 209 213 217 219 222 230 244 268 291 303 307 308 309 312 316 318 319 320 322 323 323 324 325 326 327 327 327 328 329 331 333 335 336 338
319 320 325 330 333 335 333 330 328 328 328 326 323 318 313 305 297 290 282 269 255 250 262 280 288 291 297 299 296 291 281 255 198 170 166 171 178 186 188 187 192 203 210 212 213 211 210 208 204 201 202 204 204 203 203 209 226 257 291 305 307 307 309 313 317 319 319 320 322 323 324 324 326 327 327 328 328 329 329 330 332 335 337 338 339
319 317 323 329 333 336 337 334 330 329 330 330 327 324 322 318 311 301 285 265 256 271 291 302 307 310 311 304 292 276 243 194 165 155 158 166 173 179 182 187 198 209 210 208 206 203 200 199 196 196 199 199 193 190 195 208 241 289 305 306 306 310 315 318 319 319 320 322 323 324 325 327 328 328 329 329 329 330 331 333 334 337 339 340 340
322 318 323 329 333 337 339 336 331 329 330 331 330 329 330 332 334 336 329 316 313 311 310 310 313 314 308 298 281 247 207 179 161 155 159 165 170 176 184 193 203 208 205 202 201 198 195 193 193 195 194 188 184 187 195 217 282 302 304 305 310 316 319 320 320 320 322 324 324 326 328 329 329 330 330 330 331 332 333 335 337 338 340 341 341
326 322 326 328 331 337 340 338 334 331 330 332 334 337 343 355 6 354 340 332 325 321 318 316 314 309 302 290 266 229 201 181 166 160 163 168 174 182 189 196 202 203 199 196 195 194 192 192 192 190 185 181 183 189 201 267 297 299 304 310 316 319 320 320 320 322 324 325 326 328 330 331 331 332 331 331 332 333 335 337 339 340 341 341 342
329 323 325 329 333 338 340 338 337 334 332 336 350 2 2 357 347 333 326 326 324 321 320 319 314 306 295 279 245 214 199 185 172 166 168 174 180 187 192 197 202 200 194 191 193 193 192 190 187 183 180 181 184 189 237 285 294 302 310 316 319 320 320 320 321 323 325 326 328 331 332 333 333 333 333 333 334 335 338 339 340 341 342 342 343
333 324 325 331 336 337 335 336 339 339 336 336 354 3 355 351 348 339 325 318 319 321 325 327 322 310 288 248 207 195 191 182 174 171 175 179 183 188 193 199 202 197 191 192 194 192 190 186 182 179 178 179 184 214 269 287 298 310 316 318 319 321 320 321 322 324 326 328 330 333 334 335 335 335 334 335 336 337 340 341 342 342 343 343 343
339 329 327 330 334 334 332 329 333 341 344 337 335 347 351 346 340 336 330 325 325 329 332 329 322 303 232 186 178 179 180 175 171 172 177 179 183 189 197 201 199 194 193 193 192 189 186 181 177 176 174 176 199 248 276 294 307 315 317 318 320 321 320 321 323 325 326 330 333 335 336 337 337 336 336 336 337 339 341 342 343 343 344 344 344
347 335 327 325 326 331 334 330 327 335 340 332 321 329 339 335 327 327 333 334 334 335 334 328 311 226 179 176 176 175 173 170 169 171 176 180 187 194 200 200 197 194 191 189 188 185 182 177 173 171 173 190 227 261 287 304 314 317 318 319 321 321 320 321 323 325 328 332 335 337 338 338 338 337 337 337 339 341 342 343 344 344 344 344 344
354 344 333 324 318 320 329 335 332 327 326 325 322 324 329 328 327 330 332 331 333 335 334 324 259 184 178 179 178 175 171 170 171 175 180 186 193 197 198 197 196 192 188 187 186 183 178 173 169 171 184 212 245 275 299 312 316 318 318 319 322 321 320 321 323 326 330 334 337 338 340 340 339 339 339 339 340 341 343 344 345 345 345 345 345
358 354 344 333 322 312 313 320 323 315 309 310 314 317 316 318 324 328 326 325 329 332 328 298 196 181 181 180 178 176 175 177 179 182 186 190 194 195 196 197 194 189 187 187 184 179 173 169 170 180 200 227 260 290 308 316 317 317 318 321 322 321 319 321 325 328 332 337 339 340 341 341 340 340 340 340 341 342 343 344 345 345 345 346 345
358 358 354 345 334 321 310 307 310 312 306 301 304 308 309 311 318 321 320 321 327 327 314 232 188 182 181 179 179 180 183 185 186 187 188 189 190 193 197 196 191 188 189 186 179 173 170 171 177 191 211 240 275 300 312 316 316 317 319 322 323 320 318 321 327 331 335 338 340 341 342 342 342 341 342 342 342 342 343 344 345 345 345 346 346
355 357 358 355 345 334 322 311 306 308 308 304 302 304 307 311 315 313 311 316 322 320 288 206 187 182 180 181 184 187 189 188 188 188 188 189 191 195 197 194 190 189 187 181 174 171 173 178 185 198 221 254 288 306 314 315 315 317 321 323 322 319 318 322 328 333 337 340 341 342 343 343 344 344 344 343 342 343 343 344 345 346 346 346 346
352 354 356 357 353 345 333 320 309 304 303 302 300 298 297 300 303 301 302 311 316 309 244 195 186 184 185 188 191 192 192 190 189 189 190 192 196 200 198 193 190 186 181 176 174 175 179 183 190 206 232 269 296 308 312 315 316 318 321 324 322 318 317 323 330 334 338 341 342 343 344 345 346 346 346 345 344 344 343 343 345 346 347 347 347
Height
2996 2996 2995 2995 2995 2995 2994 2993 2992 2991 2991 2991 2991 2992 2992 2993 2993 2994 2994 2994 2995 2995 2996 2997 2998 2999 3000 3000 3001 3002 3003 3003 3003 3004 3004 3005 3005 3006 3006 3007 3007 3007 3007 3007 3007 3006 3006 3005 3005 3005 3005 3004 3003 3002 3002 3001 3001 3001 3001 3001 3000 3000 2999 2999 2998 2999 3001 3000 2998 2996 2994 2993 2991 2989 2987 2985 2983 2981 2980 2978 2975 2973 2971 2968 2965
2992 2992 2991 2991 2991 2991 2990 2989 2989 2988 2987 2987 2987 2987 2987 2987 2987 2988 2988 2989 2990 2990 2991 2992 2992 2992 2993 2993 2995 2995 2996 2997 2997 2997 2998 2999 3000 3000 3000 3001 3001 3001 3001 3002 3002 3001 3000 3000 3000 3000 2999 2998 2998 2997 2996 2996 2997 2997 2997 2997 2996 2995 2994 2994 2993 2993 2995 2996 2995 2993 2991 2989 2987 2985 2982 2980 2979 2978 2977 2975 2972 2970 2966 2963 2960
2989 2988 2988 2987 2987 2986 2986 2986 2985 2985 2984 2984 2983 2983 2982 2982 2982 2982 2983 2984 2985 2985 2986 2986 2986 2986 2986 2987 2988 2989 2989 2990 2991 2991 2992 2993 2994 2994 2994 2994 2995 2995 2996 2996 2996 2995 2995 2995 2995 2994 2994 2993 2992 2992 2992 2992 2992 2993 2993 2992 2991 2990 2990 2989 2988 2987 2988 2991 2991 2989 2987 2985 2983 2981 2976 2974 2974 2973 2971 2970 2968 2965 2961 2957 2955
2987 2986 2985 2984 2984 2983 2982 2982 2981 2981 2980 2980 2980 2979 2978 2978 2977 2978 2978 2978 2979 2979 2980 2980 2980 2980 2981 2981 2982 2982 2983 2984 2984 2985 2986 2987 2987 2988 2988 2988 2988 2989 2989 2989 2989 2989 2989 2989 2989 2988 2988 2987 2987 2987 2987 2987 2988 2989 2989 2988 2987 2986 2985 2984 2983 2982 2982 2984 2986 2986 2983 2981 2980 2977 2972 2969 2969 2968 2966 2964 2962 2959 2956 2952 2949
2985 2984 2983 2982 2981 2980 2979 2978 2977 2977 2976 2976 2975 2975 2974 2974 2974 2974 2973 2973 2973 2973 2973 2974 2974 2974 2975 2976 2976 2976 2977 2977 2978 2978 2979 2980 2980 2981 2981 2981 2981 2982 2982 2982 2982 2982 2982 2983 2983 2982 2982 2982 2982 2982 2982 2983 2984 2985 2984 2983 2982 2981 2981 2980 2978 2978 2977 2977 2979 2980 2979 2977 2975 2973 2968 2964 2963 2963 2962 2959 2956 2953 2949 2946 2944
2983 2982 2981 2980 2979 2977 2976 2975 2974 2974 2973 2972 2971 2971 2970 2970 2970 2970 2969 2969 2969 2969 2969 2969 2969 2969 2969 2969 2969 2970 2971 2971 2971 2972 2972 2973 2973 2974 2974 2974 2974 2974 2974 2974 2975 2975 2976 2976 2976 2976 2976 2976 2977 2977 2977 2978 2980 2980 2979 2978 2978 2977 2976 2975 2974 2973 2973 2972 2972 2973 2974 2972 2970 2968 2964 2960 2956 2955 2955 2953 2951 2948 2943 2940 2938
2981 2980 2979 2978 2976 2975 2973 2972 2972 2971 2970 2969 2968 2967 2966 2966 2965 2965 2965 2964 2964 2964 2964 2964 2963 2963 2963 2962 2963 2964 2964 2964 2965 2966 2966 2966 2966 2967 2967 2967 2967 2967 2967 2967 2968 2968 2969 2969 2970 2970 2971 2971 2971 2971 2972 2973 2975 2975 2975 2974 2973 2972 2972 2971 2970 2969 2967 2967 2967 2967 2966 2966 2964 2961 2959 2955 2951 2949 2946 2943 2942 2940 2935 2932 2929
2978 2977 2976 2975 2974 2972 2971 2970 2969 2968 2967 2966 2965 2964 2963 2962 2961 2961 2960 2960 2960 2959 2959 2958 2958 2957 2957 2957 2957 2957 2957 2958 2959 2960 2960 2960 2959 2960 2960 2960 2960 2960 2960 2960 2961 2961 2962 2962 2964 2965 2965 2965 2964 2965 2967 2969 2970 2970 2970 2969 2968 2968 2967 2966 2966 2964 2962 2962 2963 2961 2960 2960 2958 2955 2952 2949 2946 2944 2941 2936 2932 2930 2926 2923 2920
2975 2974 2973 2972 2971 2969 2968 2967 2966 2964 2963 2963 2962 2961 2960 2959 2958 2957 2956 2956 2955 2955 2954 2953 2952 2952 2952 2952 2952 2951 2950 2951 2952 2953 2953 2953 2953 2953 2952 2952 2952 2953 2953 2953 2953 2954 2955 2956 2958 2959 2959 2958 2958 2960 2962 2964 2965 2965 2964 2964 2964 2963 2963 2962 2961 2959 2958 2957 2958 2956 2955 2955 2953 2949 2946 2943 2939 2937 2935 2930 2926 2922 2918 2916 2914
2972 2971 2970 2968 2967 2966 2965 2964 2963 2962 2960 2959 2958 2957 2956 2955 2954 2954 2953 2952 2951 2950 2949 2948 2947 2947 2947 2946 2946 2945 2944 2944 2945 2945 2945 2945 2945 2945 2944 2944 2944 2945 2946 2946 2946 2947 2948 2950 2951 2952 2952 2952 2953 2955 2957 2959 2960 2960 2959 2959 2959 2958 2958 2958 2957 2955 2953 2953 2953 2952 2950 2949 2948 2944 2940 2937 2934 2932 2929 2924 2920 2916 2911 2908 2908
2969 2968 2966 2965 2963 2962 2961 2960 2959 2959 2957 2956 2955 2954 2953 2952 2951 2950 2949 2948 2947 2946 2944 2944 2943 2943 2942 2941 2940 2939 2938 2938 2938 2937 2938 2938 2938 2937 2937 2937 2937 2937 2938 2939 2939 2940 2941 2943 2944 2945 2946 2947 2948 2950 2952 2953 2954 2954 2954 2954 2954 2954 2954 2953 2952 2950 2948 2948 2948 2948 2945 2943 2943 2940 2936 2932 2930 2927 2923 2920 2915 2911 2906 2901 2899
2967 2965 2963 2962 2960 2959 2958 2957 2956 2955 2954 2953 2952 2950 2949 2948 2948 2947 2945 2944 2943 2942 2941 2940 2939 2938 2937 2936 2935 2934 2933 2932 2932 2931 2931 2931 2931 2931 2930 2930 2930 2930 2931 2932 2933 2933 2935 2936 2937 2938 2940 2941 2943 2945 2947 2948 2949 2949 2949 2949 2949 2950 2949 2948 2947 2945 2944 2943 2944 2945 2942 2938 2937 2936 2931 2927 2925 2921 2918 2916 2911 2905 2901 2897 2893
2963 2961 2960 2959 2958 2957 2955 2954 2953 2952 2951 2950 2948 2947 2946 2945 2944 2943 2941 2940 2939 2938 2937 2936 2935 2934 2933 2931 2930 2929 2928 2927 2926 2926 2925 2925 2925 2924 2924 2924 2924 2924 2925 2926 2927 2928 2929 2930 2930 2932 2934 2936 2938 2941 2942 2943 2943 2944 2944 2944 2945 2945 2944 2944 2943 2940 2939 2939 2940 2940 2938 2933 2932 2931 2927 2922 2919 2916 2913 2911 2907 2901 2897 2893 2889
2959 2957 2956 2955 2954 2953 2951 2950 2949 2948 2947 2946 2944 2943 2942 2941 2940 2939 2937 2936 2935 2934 2933 2932 2931 2930 2928 2927 2925 2924 2923 2922 2921 2920 2919 2919 2918 2918 2917 2917 2917 2918 2919 2919 2921 2922 2922 2923 2924 2926 2929 2931 2934 2936 2937 2937 2938 2938 2939 2940 2941 2941 2940 2940 2938 2936 2935 2935 2935 2936 2934 2929 2927 2926 2923 2918 2914 2911 2907 2905 2902 2897 2892 2888 2883
2956 2954 2953 2952 2950 2948 2947 2946 2945 2944 2943 2941 2940 2939 2938 2937 2936 2934 2933 2932 2931 2930 2929 2928 2926 2925 2924 2923 2921 2919 2918 2916 2915 2914 2914 2913 2912 2911 2911 2911 2911 2911 2912 2913 2914 2915 2916 2917 2919 2922 2925 2927 2930 2931 2931 2932 2932 2933 2934 2936 2936 2936 2936 2935 2932 2931 2932 2932 2931 2931 2929 2926 2923 2921 2918 2914 2910 2907 2904 2900 2896 2890 2886 2882 2878
2953 2951 2950 2948 2946 2945 2943 2942 2940 2939 2938 2937 2936 2935 2934 2932 2931 2930 2929 2928 2927 2925 2924 2923 2922 2921 2920 2918 2917 2915 2913 2911 2910 2909 2908 2907 2905 2904 2905 2905 2905 2905 2906 2907 2908 2909 2910 2913 2915 2918 2921 2923 2925 2925 2925 2926 2926 2928 2930 2932 2931 2931 2931 2930 2927 2927 2928 2928 2927 2926 2924 2922 2919 2916 2913 2909 2906 2902 2898 2895 2890 2884 2880 2876 2873
2950 2948 2946 2944 2943 2941 2939 2938 2936 2935 2934 2932 2931 2930 2929 2928 2927 2926 2924 2923 2922 2921 2919 2918 2917 2916 2915 2913 2912 2910 2908 2906 2905 2903 2902 2901 2899 2897 2899 2899 2899 2899 2900 2901 2902 2904 2906 2909 2912 2914 2917 2918 2919 2919 2919 2920 2921 2924 2926 2927 2926 2927 2927 2925 2923 2923 2924 2924 2923 2921 2919 2917 2914 2911 2908 2905 2900 2896 2892 2889 2885 2880 2875 2871 2867
2946 2945 2943 2941 2939 2937 2935 2934 2932 2931 2929 2928 2927 2925 2924 2923 2922 2921 2919 2918 2917 2916 2914 2913 2912 2911 2910 2909 2907 2905 2903 2902 2900 2898 2896 2895 2893 2891 2893 2893 2893 2894 2894 2895 2896 2899 2902 2905 2908 2910 2912 2913 2913 2913 2914 2915 2917 2920 2921 2921 2922 2923 2923 2920 2919 2920 2920 2920 2919 2917 2915 2913 2909 2907 2904 2901 2897 2893 2888 2885 2881 2876 2871 2866 2861
2943 2941 2939 2937 2935 2933 2931 2930 2928 2926 2925 2924 2922 2921 2919 2918 2917 2915 2914 2913 2912 2911 2910 2908 2907 2906 2905 2904 2902 2900 2898 2897 2895 2893 2891 2890 2888 2886 2886 2888 2888 2888 2889 2890 2892 2895 2898 2902 2904 2905 2906 2907 2907 2908 2909 2911 2913 2915 2916 2916 2918 2919 2918 2916 2916 2917 2916 2916 2915 2914 2911 2909 2906 2903 2901 2897 2894 2889 2885 2881 2877 2872 2867 2863 2858
2939 2937 2935 2933 2931 2929 2927 2925 2924 2922 2920 2919 2917 2916 2915 2913 2912 2910 2909 2908 2907 2906 2904 2903 2902 2901 2900 2898 2896 2895 2893 2891 2890 2888 2886 2884 2882 2880 2880 2882 2883 2883 2884 2885 2888 2891 2894 2897 2899 2900 2901 2901 2902 2904 2905 2907 2909 2910 2911 2912 2913 2914 2913 2912 2913 2913 2913 2912 2912 2910 2908 2905 2902 2900 2897 2894 2890 2886 2881 2877 2873 2868 2863 2860 2856
2934 2932 2931 2929 2927 2924 2922 2921 2919 2917 2915 2914 2912 2911 2909 2908 2907 2905 2904 2903 2901 2900 2899 2898 2897 2896 2895 2893 2891 2890 2888 2886 2884 2883 2881 2879 2877 2875 2875 2877 2878 2878 2879 2881 2884 2887 2890 2892 2894 2895 2895 2897 2898 2900 2901 2902 2904 2905 2907 2908 2908 2909 2909 2909 2909 2909 2909 2909 2908 2907 2905 2902 2900 2897 2893 2890 2886 2882 2878 2874 2869 2865 2860 2856 2852
2929 2928 2926 2924 2922 2920 2917 2916 2914 2912 2910 2908 2907 2906 2904 2903 2901 2900 2899 2897 2896 2895 2894 2893 2892 2891 2890 2888 2886 2884 2883 2881 2879 2878 2876 2873 2872 2870 2870 2872 2873 2873 2873 2876 2880 2884 2886 2888 2889 2890 2890 2892 2894 2895 2896 2897 2899 2901 2902 2903 2903 2904 2904 2906 2906 2906 2906 2905 2904 2904 2901 2898 2896 2894 2890 2887 2883 2878 2874 2871 2866 2862 2857 2853 2848
2924 2923 2921 2919 2917 2915 2912 2910 2909 2907 2905 2903 2901 2900 2899 2897 2896 2894 2893 2892 2891 2890 2889 2888 2887 2886 2885 2883 2882 2880 2878 2876 2874 2873 2871 2869 2867 2865 2865 2866 2867 2867 2869 2873 2877 2880 2882 2883 2884 2885 2886 2888 2890 2891 2892 2893 2895 2896 2898 2898 2898 2899 2900 2901 2902 2902 2902 2902 2900 2899 2897 2894 2892 2889 2886 2883 2879 2874 2871 2867 2863 2858 2853 2849 2844
2919 2917 2915 2913 2911 2909 2907 2905 2903 2901 2899 2897 2895 2894 2893 2891 2890 2889 2888 2886 2885 2884 2883 2882 2882 2881 2880 2879 2877 2875 2873 2871 2869 2868 2866 2864 2862 2860 2860 2860 2862 2863 2866 2870 2873 2875 2876 2878 2879 2880 2882 2884 2885 2887 2888 2890 2891 2892 2893 2893 2894 2895 2896 2897 2898 2898 2898 2898 2896 2895 2893 2890 2887 2885 2882 2878 2874 2870 2866 2863 2858 2853 2848 2844 2840
2914 2912 2910 2907 2905 2903 2901 2899 2897 2895 2893 2891 2889 2888 2886 2885 2884 2883 2882 2881 2880 2878 2877 2877 2876 2875 2875 2874 2872 2870 2868 2866 2865 2863 2861 2859 2856 2855 2855 2855 2857 2859 2863 2866 2868 2870 2872 2873 2875 2876 2878 2880 2882 2884 2885 2886 2887 2888 2889 2889 2890 2891 2892 2893 2893 2894 2894 2893 2892 2890 2888 2885 2883 2880 2877 2873 2869 2865 2861 2857 2853 2849 2844 2840 2837
2908 2906 2904 2902 2899 2897 2895 2893 2891 2889 2887 2885 2883 2881 2880 2878 2877 2876 2876 2875 2874 2873 2872 2871 2871 2870 2869 2868 2867 2865 2863 2862 2860 2859 2856 2854 2852 2851 2851 2852 2854 2856 2859 2862 2864 2866 2868 2869 2871 2873 2875 2877 2878 2880 2881 2883 2884 2884 2885 2885 2886 2887 2888 2889 2889 2889 2889 2889 2887 2885 2883 2881 2878 2875 2872 2868 2864 2860 2856 2852 2849 2845 2841 2837 2834
2902 2900 2898 2895 2893 2891 2889 2886 2884 2882 2880 2878 2876 2875 2873 2872 2871 2870 2870 2869 2868 2867 2866 2865 2865 2864 2864 2863 2862 2860 2858 2857 2856 2854 2851 2849 2848 2847 2848 2849 2851 2853 2856 2859 2861 2862 2864 2866 2868 2870 2871 2873 2875 2876 2878 2879 2880 2880 2881 2882 2883 2883 2884 2885 2885 2885 2885 2884 2883 2881 2879 2876 2874 2871 2867 2864 2860 2855 2851 2847 2844 2841 2837 2834 2830
2895 2894 2891 2889 2886 2884 2882 2880 2878 2876 2874 2872 2870 2868 2867 2865 2864 2864 2863 2862 2861 2861 2860 2860 2859 2859 2858 2858 2857 2855 2854 2853 2851 2849 2847 2845 2844 2844 2844 2846 2848 2851 2853 2856 2857 2859 2861 2863 2864 2866 2868 2870 2871 2873 2875 2876 2876 2877 2877 2878 2879 2880 2881 2881 2882 2882 2881 2880 2878 2877 2875 2872 2869 2866 2863 2860 2855 2851 2847 2844 2840 2837 2834 2830 2826
2890 2888 2885 2882 2879 2877 2874 2872 2870 2868 2866 2865 2863 2861 2860 2859 2858 2857 2857 2856 2855 2855 2854 2854 2854 2854 2853 2853 2852 2850 2849 2848 2846 2844 2842 2841 2840 2840 2841 2843 2846 2848 2850 2852 2854 2856 2858 2859 2861 2863 2865 2866 2868 2870 2872 2873 2873 2873 2874 2875 2876 2877 2878 2878 2878 2878 2877 2876 2874 2872 2870 2868 2865 2862 2859 2855 2851 2847 2843 2840 2837 2834 2830 2826 2823
2883 2881 2879 2875 2872 2869 2867 2865 2863 2861 2859 2857 2855 2854 2853 2852 2851 2851 2850 2850 2850 2849 2849 2849 2849 2849 2849 2848 2846 2845 2844 2843 2841 2839 2838 2837 2836 2836 2837 2840 2842 2844 2845 2847 2850 2852 2855 2856 2858 2860 2862 2864 2866 2868 2869 2869 2870 2870 2871 2872 2873 2874 2874 2875 2875 2874 2873 2872 2870 2868 2866 2864 2862 2858 2854 2851 2847 2844 2840 2837 2834 2830 2827 2823 2820
2875 2874 2871 2868 2865 2862 2860 2857 2855 2853 2851 2850 2848 2847 2846 2845 2845 2845 2844 2844 2844 2844 2843 2843 2844 2844 2844 2843 2841 2840 2839 2838 2837 2835 2834 2834 2833 2833 2834 2836 2838 2840 2842 2845 2847 2850 2852 2854 2856 2858 2860 2862 2864 2865 2866 2866 2866 2867 2868 2869 2870 2871 2871 2871 2871 2871 2870 2868 2867 2865 2863 2860 2857 2853 2850 2846 2844 2841 2837 2834 2831 2827 2824 2820 2816
2869 2866 2864 2860 2857 2854 2852 2849 2847 2845 2843 2842 2841 2840 2839 2838 2839 2839 2838 2838 2838 2838 2838 2838 2839 2840 2839 2838 2836 2835 2835 2834 2832 2831 2830 2830 2830 2830 2831 2833 2835 2838 2840 2843 2845 2848 2851 2854 2855 2857 2859 2860 2861 2862 2862 2863 2864 2865 2866 2867 2867 2868 2868 2868 2868 2868 2867 2865 2864 2861 2859 2856 2853 2849 2846 2843 2840 2838 2835 2831 2828 2824 2821 2818 2814
2863 2860 2856 2853 2850 2847 2844 2842 2840 2837 2836 2834 2833 2832 2832 2832 2832 2832 2832 2832 2833 2833 2833 2834 2835 2835 2834 2833 2832 2831 2831 2830 2828 2827 2826 2827 2827 2828 2829 2831 2834 2836 2839 2841 2844 2847 2850 2852 2854 2855 2856 2858 2859 2859 2860 2861 2862 2863 2863 2864 2864 2865 2865 2865 2865 2865 2863 2862 2860 2858 2855 2852 2849 2846 2843 2840 2837 2835 2832 2828 2825 2822 2818 2815 2812
2858 2854 2850 2846 2843 2841 2838 2836 2834 2832 2830 2828 2827 2826 2826 2825 2825 2826 2826 2827 2828 2829 2829 2829 2830 2830 2830 2830 2829 2828 2827 2826 2824 2823 2823 2824 2825 2827 2828 2830 2832 2835 2838 2840 2843 2846 2849 2850 2852 2853 2854 2855 2856 2857 2858 2859 2860 2860 2861 2862 2862 2862 2863 2863 2862 2862 2860 2859 2857 2854 2852 2849 2846 2843 2840 2837 2835 2832 2829 2825 2822 2819 2816 2813 2809
2854 2850 2846 2842 2839 2837 2834 2832 2830 2828 2826 2824 2823 2821 2821 2820 2820 2820 2821 2821 2823 2824 2825 2825 2826 2826 2826 2826 2825 2824 2823 2822 2821 2820 2820 2822 2824 2826 2828 2830 2832 2835 2838 2840 2842 2845 2846 2848 2849 2851 2852 2853 2854 2855 2856 2857 2858 2858 2859 2859 2860 2860 2860 2860 2860 2859 2858 2856 2854 2851 2848 2846 2843 2840 2838 2835 2832 2829 2826 2823 2820 2817 2814 2810 2807
2849 2846 2843 2840 2837 2835 2832 2830 2827 2825 2823 2821 2819 2818 2817 2816 2816 2816 2816 2817 2818 2820 2821 2821 2822 2822 2822 2822 2821 2821 2820 2819 2818 2818 2818 2820 2823 2826 2828 2830 2833 2836 2838 2839 2841 2842 2844 2846 2847 2848 2850 2851 2852 2854 2855 2855 2856 2856 2857 2858 2858 2859 2858 2858 2857 2856 2855 2853 2850 2848 2845 2843 2840 2838 2835 2833 2830 2827 2824 2821 2818 2814 2811 2807 2804
2845 2842 2840 2838 2836 2833 2830 2827 2825 2822 2820 2818 2816 2815 2814 2813 2812 2812 2812 2813 2814 2816 2818 2818 2819 2819 2819 2818 2818 2817 2816 2816 2815 2816 2817 2820 2823 2826 2828 2831 2833 2835 2837 2838 2839 2841 2842 2844 2845 2847 2848 2850 2851 2852 2853 2853 2854 2855 2855 2856 2856 2856 2856 2856 2855 2853 2852 2850 2847 2845 2843 2840 2838 2835 2833 2830 2827 2824 2821 2818 2815 2812 2808 2805 2801
2842 2839 2838 2836 2834 2831 2828 2825 2823 2820 2818 2815 2813 2812 2811 2810 2809 2809 2810 2810 2812 2814 2815 2816 2816 2816 2816 2816 2815 2814 2814 2814 2814 2815 2817 2820 2823 2826 2829 2831 2832 2834 2836 2837 2838 2839 2841 2843 2844 2845 2847 2848 2850 2851 2851 2852 2852 2853 2854 2854 2855 2855 2854 2853 2852 2851 2849 2847 2845 2843 2840 2838 2835 2833 2831 2828 2825 2822 2819 2816 2813 2810 2807 2803 2799
2840 2838 2836 2834 2832 2829 2827 2824 2821 2818 2816 2814 2812 2810 2809 2808 2807 2807 2808 2809 2810 2812 2813 2814 2814 2813 2813 2813 2813 2812 2812 2813 2814 2815 2817 2820 2823 2826 2828 2831 2832 2834 2835 2836 2837 2839 2840 2841 2843 2844 2846 2847 2848 2849 2850 2850 2851 2852 2852 2852 2853 2853 2852 2851 2849 2848 2846 2844 2842 2840 2838 2836 2833 2831 2828 2826 2823 2820 2817 2814 2811 2808 2805 2801 2797
2838 2836 2834 2832 2830 2828 2826 2823 2820 2818 2815 2813 2811 2810 2808 2807 2807 2807 2807 2808 2810 2811 2812 2812 2811 2811 2811 2811 2810 2810 2811 2812 2813 2815 2818 2820 2824 2826 2828 2830 2832 2833 2834 2835 2836 2838 2839 2840 2842 2843 2845 2846 2847 2848 2849 2849 2850 2850 2851 2851 2851 2850 2849 2848 2847 2846 2844 2842 2840 2838 2836 2834 2831 2829 2826 2823 2820 2818 2815 2812 2809 2806 2802 2799 2796
2835 2834 2832 2830 2829 2827 2825 2822 2820 2817 2815 2813 2811 2810 2809 2808 2808 2808 2808 2809 2810 2810 2810 2810 2810 2809 2809 2809 2808 2808 2810 2811 2812 2814 2817 2820 2823 2826 2828 2829 2831 2832 2833 2834 2835 2837 2838 2840 2841 2843 2844 2845 2846 2847 2847 2848 2848 2849 2849 2849 2849 2848 2847 2846 2845 2843 2842 2840 2838 2836 2834 2832 2829 2827 2824 2821 2818 2816 2813 2810 2807 2804 2800 2797 2794
2833 2832 2830 2829 2828 2826 2824 2822 2820 2817 2815 2813 2812 2811 2810 2809 2809 2809 2809 2809 2809 2809 2809 2809 2808 2808 2807 2807 2807 2807 2808 2809 2811 2813 2816 2819 2822 2824 2827 2829 2830 2831 2832 2833 2835 2836 2838 2839 2841 2842 2843 2844 2845 2846 2846 2846 2847 2848 2848 2848 2847 2846 2845 2844 2843 2841 2840 2838 2836 2834 2832 2830 2827 2825 2822 2819 2816 2814 2811 2808 2805 2802 2798 2795 2792
2832 2830 2829 2828 2826 2825 2823 2821 2819 2817 2816 2814 2813 2812 2811 2811 2810 2810 2809 2809 2809 2809 2808 2808 2807 2806 2806 2805 2806 2807 2809 2810 2811 2813 2815 2818 2821 2824 2826 2828 2829 2830 2831 2833 2834 2836 2838 2839 2840 2842 2843 2844 2844 2845 2845 2846 2846 2846 2846 2846 2845 2844 2843 2842 2841 2839 2838 2836 2834 2832 2830 2828 2825 2823 2820 2817 2815 2812 2809 2806 2803 2800 2797 2794 2790
2831 2830 2828 2827 2826 2824 2823 2821 2820 2818 2816 2815 2814 2813 2812 2812 2811 2810 2810 2809 2809 2808 2807 2806 2806 2805 2804 2805 2806 2807 2809 2811 2812 2813 2816 2818 2821 2823 2826 2827 2828 2830 2831 2832 2834 2836 2837 2839 2840 2841 2842 2843 2843 2844 2844 2845 2845 2845 2845 2844 2843 2842 2841 2840 2839 2837 2836 2834 2832 2830 2828 2826 2823 2821 2818 2816 2813 2810 2808 2805 2802 2799 2795 2792 2789
2831 2829 2827 2826 2825 2824 2822 2821 2820 2818 2817 2816 2815 2814 2813 2812 2811 2811 2810 2809 2808 2807 2806 2805 2805 2804 2804 2805 2806 2808 2809 2811 2813 2814 2817 2819 2821 2823 2825 2826 2828 2829 2831 2832 2834 2836 2837 2839 2840 2841 2841 2842 2843 2843 2844 2844 2844 2844 2843 2842 2841 2840 2839 2838 2837 2836 2834 2833 2831 2828 2826 2824 2822 2819 2817 2814 2812 2809 2806 2803 2800 2797 2794 2791 2788
2831 2829 2827 2826 2824 2823 2822 2821 2820 2818 2817 2816 2815 2814 2813 2812 2811 2810 2809 2808 2808 2806 2805 2805 2804 2805 2805 2805 2806 2808 2809 2811 2813 2815 2817 2819 2821 2823 2825 2826 2827 2829 2831 2832 2834 2835 2837 2838 2839 2840 2841 2842 2842 2843 2843 2843 2843 2842 2842 2841 2840 2839 2838 2837 2835 2834 2833 2831 2829 2827 2825 2822 2820 2818 2815 2813 2810 2808 2805 2802 2799 2796 2793 2790 2787
2831 2828 2826 2825 2823 2822 2821 2820 2819 2818 2817 2816 2815 2814 2813 2812 2811 2810 2809 2808 2807 2806 2805 2804 2804 2805 2805 2806 2807 2809 2810 2812 2813 2815 2817 2819 2821 2823 2824 2826 2827 2829 2830 2832 2833 2835 2837 2838 2838 2839 2840 2841 2842 2842 2842 2842 2841 2841 2840 2839 2838 2837 2836 2835 2834 2833 2831 2829 2827 2825 2823 2821 2819 2816 2814 2811 2809 2806 2803 2801 2798 2795 2792 2789 2785
2832 2828 2826 2824 2822 2821 2820 2820 2819 2818 2817 2816 2815 2814 2813 2812 2811 2810 2809 2808 2807 2805 2804 2804 2804 2805 2806 2807 2808 2810 2811 2812 2814 2815 2817 2819 2821 2823 2824 2826 2827 2829 2830 2832 2833 2835 2836 2837 2838 2839 2840 2841 2841 2841 2841 2841 2840 2839 2839 2838 2837 2836 2835 2834 2832 2831 2829 2828 2826 2824 2822 2820 2818 2815 2813 2810 2807 2805 2802 2799 2797 2794 2791 2788 2784
2832 2829 2825 2823 2822 2820 2819 2818 2817 2817 2816 2815 2814 2813 2812 2811 2810 2810 2809 2807 2806 2805 2804 2803 2804 2805 2806 2808 2809 2810 2811 2813 2814 2816 2818 2820 2821 2823 2824 2825 2827 2828 2830 2831 2833 2834 2835 2837 2838 2839 2840 2840 2841 2840 2840 2840 2839 2838 2837 2836 2836 2834 2833 2832 2831 2830 2828 2826 2825 2823 2821 2819 2817 2814 2811 2809 2806 2804 2801 2799 2796 2793 2790 2787 2783
2833 2829 2826 2823 2821 2820 2818 2817 2816 2815 2814 2813 2813 2812 2811 2810 2809 2809 2808 2806 2805 2804 2803 2804 2805 2806 2807 2808 2810 2811 2812 2813 2815 2817 2818 2820 2821 2823 2824 2825 2827 2828 2830 2831 2833 2834 2835 2836 2838 2838 2839 2840 2840 2839 2839 2839 2838 2837 2836 2835 2834 2833 2832 2831 2830 2828 2827 2825 2823 2822 2820 2818 2816 2813 2810 2808 2805 2803 2800 2798 2795 2792 2789 2786 2783
2833 2830 2827 2824 2821 2819 2818 2816 2815 2814 2813 2812 2811 2811 2810 2809 2808 2807 2806 2805 2804 2803 2803 2804 2805 2806 2807 2809 2810 2811 2812 2814 2815 2817 2819 2820 2821 2822 2823 2825 2826 2828 2829 2831 2832 2834 2835 2836 2837 2838 2838 2839 2839 2839 2838 2838 2837 2836 2835 2834 2833 2832 2831 2830 2828 2827 2825 2824 2822 2821 2819 2817 2815 2812 2810 2807 2804 2802 2799 2797 2794 2791 2788 2785 2782